Location: Austin
(30.3000°N, 97.7500°W)
Time: 03:49:27
(UTC-06:00)

YAOGAN 1 - Pass Details

Date: 20 November 2024
Orbit: 609 x 611 km, 97.8° (Epoch: 05 December)

Event Time Altitude Azimuth Distance (km) Brightness Sun altitude
Rises 19:54:31 0° 190° (S) 2,857 6.2 -30.5°
Reaches altitude 10° 19:56:54 10° 201° (SSW) 1,956 5.4 -31.0°
Maximum altitude 20:00:38 30° 262° (W) 1,101 4.3 -31.8°
Drops below altitude 10° 20:04:24 10° 324° (NW) 1,965 5.4 -32.6°
Sets 20:06:48 0° 335° (NNW) 2,873 6.2 -33.2°
